STARLINK-34023 (63875 NORAD) Tracking and Keplerian Element Data

This shows tracking and keplerian element data for the satellite.

Feedback or suggestion? Click here.




ElementValue
Catalog63875
NameSTARLINK-34023
Epoch Orbit3530
Epoch Day354.23568355
Epoch Year2025
RAAN74.7129
Inclination70.0019
Eccentricity0.0004395
Argument of Perigee277.7075
Mean Anonmoly82.3584
Mean Motion14.98097209
Decay Rate-0.00046127
L11 63875U 25094M 25354.23568355 -.00046127 00000+0 -39065-2 0 9991
L22 63875 70.0019 74.7129 0004395 277.7075 82.3584 14.98097209 35304



Live tracking and technical data element details for STARLINK-34023 (NORAD 63875). STARLINK-34023 can be tracked NOW for your location showing map with azimuth and elevation plus other details from your city location.







IsCatalogInMostPopularTable: catalog: 63875, numindb: 6
Update: records affected: 1



GetName: 63875 STARLINK-34023

Hit Count: updated at: Mon, 20 Apr 2026 09:30:41 GMT